Terug naar catalogus

DELTA 1 DEB

LostUNKNOWN
NORAD 40760·DEBRIS·🇺🇸 United States

Gelanceerd Jul 29, 1976 vanaf Vandenberg Space Force Base

Loading…

Volgende Passages (komende 24 uur)

TLE

VerouderdSource: Space-Track

Epoch: Oct 10, 2015, 07:21 UTC

1 40760U 76077GD  15283.30628904  .00000010  00000-0  79104-3 0  9990
2 40760 103.3241 316.1683 0465124  55.5238 308.8812 11.55933568 45297

Volg DELTA 1 DEB in realtime met AllMySat

Download on the App Store